When you browse on this site, cookies collect data to enhance your experience and personalize the content and advertising you see.
Visit our Privacy Policy to learn more. By continuing to use the site, you agree to this use of cookies and data.
  • In Latvia
  • List of Countries
  • For 7 days
  • Water Temperature
  • Satellite Maps
  • Weather Map
  • Weather Widgets
  • user-avatar
    Login

    Hourly Weather Ordino

    Today, 22 July, Monday

    Time Temperature Precipitation Wind Pressure Humidity
    00:00 +18°C° 0 mm 1 mps 639 mmHg 78%
    01:00 +18°C° 0 mm 1 mps 639 mmHg 78%
    02:00 +18°C° 0 mm 1 mps 639 mmHg 77%
    03:00 +18°C° 0 mm 1 mps 639 mmHg 77%
    04:00 +18°C° 0 mm 1 mps 639 mmHg 75%
    05:00 +19°C° 0 mm 1 mps 639 mmHg 73%
    06:00 +20°C° 0 mm 1 mps 640 mmHg 70%
    07:00 +22°C° 0 mm 1 mps 641 mmHg 59%
    08:00 +25°C° 0 mm 1 mps 642 mmHg 47%
    09:00 +28°C° 0 mm 1 mps 642 mmHg 36%
    10:00 +28°C° 0 mm 1 mps 643 mmHg 33%
    11:00 +29°C° 0 mm 2 mps 643 mmHg 31%
    12:00 +30°C° 0 mm 2 mps 643 mmHg 28%
    13:00 +30°C° 0 mm 2 mps 642 mmHg 29%
    14:00 +30°C° 0 mm 2 mps 642 mmHg 30%
    15:00 +30°C° 0 mm 2 mps 642 mmHg 31%
    16:00 +28°C° 0.1 mm 2 mps 641 mmHg 38%
    17:00 +27°C° 0.1 mm 1 mps 640 mmHg 45%
    18:00 +26°C° 0.1 mm 1 mps 640 mmHg 52%
    19:00 +24°C° 0 mm 1 mps 639 mmHg 53%
    20:00 +22°C° 0 mm 1 mps 639 mmHg 54%
    21:00 +19°C° 0 mm 1 mps 638 mmHg 54%
    22:00 +19°C° 0 mm 1 mps 638 mmHg 52%
    23:00 +19°C° 0 mm 1 mps 638 mmHg 50%

    Tomorrow, 23 July, Tuesday

    Time Temperature Precipitation Wind Pressure Humidity
    00:00 +18°C° 0 mm 2 mps 638 mmHg 47%
    01:00 +18°C° 0 mm 2 mps 637 mmHg 47%
    02:00 +18°C° 0 mm 2 mps 637 mmHg 46%
    03:00 +18°C° 0 mm 2 mps 637 mmHg 46%
    04:00 +18°C° 0 mm 2 mps 637 mmHg 47%
    05:00 +19°C° 0 mm 2 mps 637 mmHg 48%
    06:00 +20°C° 0 mm 1 mps 637 mmHg 49%
    07:00 +23°C° 0 mm 1 mps 638 mmHg 42%
    08:00 +26°C° 0 mm 1 mps 639 mmHg 36%
    09:00 +28°C° 0 mm 1 mps 640 mmHg 29%
    10:00 +29°C° 0 mm 1 mps 640 mmHg 27%
    11:00 +30°C° 0 mm 2 mps 640 mmHg 26%
    12:00 +31°C° 0 mm 2 mps 640 mmHg 24%
    13:00 +30°C° 0 mm 2 mps 640 mmHg 26%
    14:00 +30°C° 0 mm 2 mps 639 mmHg 28%
    15:00 +30°C° 0 mm 2 mps 639 mmHg 30%
    16:00 +28°C° 0 mm 2 mps 639 mmHg 36%
    17:00 +27°C° 0 mm 1 mps 638 mmHg 42%
    18:00 +26°C° 0 mm 1 mps 638 mmHg 48%
    19:00 +24°C° 0 mm 1 mps 637 mmHg 50%
    20:00 +22°C° 0 mm 1 mps 637 mmHg 52%
    21:00 +20°C° 0 mm 1 mps 636 mmHg 55%
    22:00 +19°C° 0 mm 1 mps 636 mmHg 53%
    23:00 +19°C° 0 mm 1 mps 636 mmHg 52%

    Day after tomorrow, 24 July, Wednesday

    Time Temperature Precipitation Wind Pressure Humidity
    00:00 +19°C° 0 mm 1 mps 636 mmHg 51%
    01:00 +19°C° 0 mm 1 mps 636 mmHg 50%
    02:00 +18°C° 0 mm 1 mps 636 mmHg 48%
    03:00 +18°C° 0 mm 1 mps 635 mmHg 47%
    04:00 +19°C° 0 mm 1 mps 636 mmHg 48%
    05:00 +19°C° 0 mm 1 mps 636 mmHg 48%
    06:00 +20°C° 0 mm 1 mps 636 mmHg 49%
    07:00 +23°C° 0 mm 1 mps 637 mmHg 43%
    08:00 +25°C° 0 mm 1 mps 638 mmHg 36%
    09:00 +28°C° 0 mm 1 mps 639 mmHg 30%
    10:00 +29°C° 0 mm 1 mps 639 mmHg 28%
    11:00 +30°C° 0 mm 2 mps 639 mmHg 27%
    12:00 +31°C° 0 mm 2 mps 639 mmHg 25%
    13:00 +30°C° 0 mm 2 mps 639 mmHg 26%
    14:00 +30°C° 0 mm 2 mps 638 mmHg 28%
    15:00 +30°C° 0 mm 2 mps 638 mmHg 29%
    16:00 +28°C° 0 mm 2 mps 637 mmHg 36%
    17:00 +27°C° 0 mm 2 mps 637 mmHg 42%
    18:00 +26°C° 0 mm 2 mps 636 mmHg 49%
    19:00 +24°C° 0 mm 2 mps 636 mmHg 52%
    20:00 +22°C° 0 mm 1 mps 635 mmHg 55%
    21:00 +20°C° 0 mm 1 mps 635 mmHg 58%
    22:00 +19°C° 0 mm 1 mps 635 mmHg 57%
    23:00 +19°C° 0 mm 1 mps 634 mmHg 56%

    25 July, Thursday

    Time Temperature Precipitation Wind Pressure Humidity
    00:00 +18°C° 0 mm 2 mps 634 mmHg 55%
    01:00 +18°C° 0 mm 2 mps 634 mmHg 53%
    02:00 +19°C° 0 mm 1 mps 634 mmHg 52%
    03:00 +19°C° 0 mm 1 mps 634 mmHg 51%
    04:00 +19°C° 0 mm 1 mps 634 mmHg 50%
    05:00 +20°C° 0 mm 1 mps 634 mmHg 50%
    06:00 +20°C° 0 mm 1 mps 635 mmHg 49%
    07:00 +23°C° 0 mm 2 mps 636 mmHg 42%
    08:00 +25°C° 0 mm 2 mps 637 mmHg 36%
    09:00 +28°C° 0 mm 2 mps 637 mmHg 29%
    10:00 +29°C° 0 mm 2 mps 638 mmHg 27%
    11:00 +30°C° 0 mm 2 mps 638 mmHg 25%
    12:00 +30°C° 0 mm 3 mps 638 mmHg 24%
    13:00 +30°C° 0 mm 3 mps 637 mmHg 24%
    14:00 +30°C° 0 mm 3 mps 637 mmHg 25%
    15:00 +30°C° 0 mm 3 mps 637 mmHg 25%
    16:00 +29°C° 0 mm 3 mps 636 mmHg 32%
    17:00 +27°C° 0 mm 2 mps 636 mmHg 39%
    18:00 +26°C° 0 mm 2 mps 635 mmHg 46%
    19:00 +23°C° 0 mm 2 mps 635 mmHg 49%
    20:00 +21°C° 0 mm 1 mps 634 mmHg 53%
    21:00 +19°C° 0 mm 1 mps 634 mmHg 57%
    22:00 +19°C° 0 mm 1 mps 634 mmHg 57%
    23:00 +19°C° 0 mm 1 mps 634 mmHg 56%

    26 July, Friday

    Time Temperature Precipitation Wind Pressure Humidity
    00:00 +19°C° 0 mm 1 mps 634 mmHg 56%
    01:00 +18°C° 0 mm 1 mps 633 mmHg 55%
    02:00 +18°C° 0 mm 1 mps 633 mmHg 55%
    03:00 +18°C° 0 mm 1 mps 633 mmHg 54%
    04:00 +18°C° 0 mm 1 mps 633 mmHg 56%
    05:00 +18°C° 0 mm 1 mps 634 mmHg 57%
    06:00 +19°C° 0 mm 1 mps 634 mmHg 59%
    07:00 +20°C° 0 mm 1 mps 634 mmHg 54%
    08:00 +22°C° 0 mm 1 mps 635 mmHg 48%
    09:00 +24°C° 0 mm 2 mps 636 mmHg 43%
    10:00 +24°C° 0 mm 2 mps 636 mmHg 42%
    11:00 +25°C° 0 mm 3 mps 636 mmHg 41%
    12:00 +26°C° 0 mm 3 mps 636 mmHg 40%
    13:00 +24°C° 0.2 mm 3 mps 636 mmHg 47%
    14:00 +22°C° 0.2 mm 3 mps 635 mmHg 53%
    15:00 +21°C° 0.2 mm 2 mps 635 mmHg 60%
    16:00 +20°C° 1.2 mm 2 mps 634 mmHg 67%
    17:00 +19°C° 1.2 mm 2 mps 634 mmHg 73%
    18:00 +18°C° 1.2 mm 2 mps 634 mmHg 80%
    19:00 +16°C° 2.4 mm 1 mps 634 mmHg 84%
    20:00 +15°C° 2.4 mm 1 mps 634 mmHg 88%
    21:00 +14°C° 2.4 mm 1 mps 634 mmHg 92%
    22:00 +13°C° 0 mm 1 mps 634 mmHg 93%
    23:00 +13°C° 0 mm 2 mps 634 mmHg 94%

    27 July, Saturday

    Time Temperature Precipitation Wind Pressure Humidity
    00:00 +13°C° 0 mm 2 mps 633 mmHg 95%
    01:00 +13°C° 0 mm 2 mps 633 mmHg 95%
    02:00 +12°C° 0 mm 2 mps 633 mmHg 95%
    03:00 +12°C° 0 mm 2 mps 633 mmHg 95%
    04:00 +12°C° 0 mm 1 mps 633 mmHg 94%
    05:00 +13°C° 0 mm 1 mps 633 mmHg 93%
    06:00 +13°C° 0 mm 1 mps 633 mmHg 93%
    07:00 +14°C° 0 mm 1 mps 634 mmHg 87%
    08:00 +16°C° 0 mm 1 mps 635 mmHg 81%
    09:00 +18°C° 0 mm 1 mps 636 mmHg 75%
    10:00 +19°C° 0.1 mm 1 mps 635 mmHg 72%
    11:00 +18°C° 0.1 mm 2 mps 635 mmHg 69%
    12:00 +19°C° 0.1 mm 2 mps 635 mmHg 66%
    13:00 +19°C° 0.1 mm 2 mps 635 mmHg 66%
    14:00 +20°C° 0.1 mm 1 mps 635 mmHg 66%
    15:00 +20°C° 0.1 mm 1 mps 635 mmHg 66%
    16:00 +19°C° 0 mm 1 mps 634 mmHg 70%
    17:00 +19°C° 0 mm 1 mps 634 mmHg 73%
    18:00 +18°C° 0 mm 1 mps 634 mmHg 76%
    19:00 +16°C° 0 mm 1 mps 634 mmHg 82%
    20:00 +15°C° 0 mm 1 mps 634 mmHg 87%
    21:00 +13°C° 0 mm 1 mps 634 mmHg 92%
    22:00 +13°C° 0 mm 1 mps 634 mmHg 92%
    23:00 +13°C° 0 mm 1 mps 634 mmHg 92%
    Show more